Location: Mohawk View
(42.7837°N, 73.7885°W)
Time: 11:41:59
(UTC+00:00)

ATLAS 3B R/B - Pass Details

Date: 17 June 2021
Orbit: 1003 x 1191 km, 63.8° (Epoch: 21 July)

Event Time Altitude Azimuth Distance (km) Brightness Sun altitude
Rises 04:27:50 0° 247° (WSW) 3,728 5.4 -23.5°
Reaches altitude 10° 04:30:41 10° 256° (WSW) 2,792 4.8 -23.6°
Maximum altitude 04:36:33 34° 320° (NW) 1,643 4.1 -23.7°
Drops below altitude 10° 04:42:39 10° 24° (NNE) 2,891 5.8 -23.8°
Sets 04:45:39 0° 34° (NNE) 3,879 6.5 -23.8°
